Regional Weather Roundup
Issued by NWS

Home | Current Version | Previous Version | Graphics & Text | Print | Product List | Glossary On
Versions: 1 2 3 4 5 6 7 8 9 10 11 12 13 14 15 16 17 18 19 20 21 22 23 24 25 26 27
000
ASUS45 KBOU 151707
RWRCO

WEATHER ROUNDUP FOR COLORADO
NATIONAL WEATHER SERVICE DENVER/BOULDER CO
1000 AM MST SUN JAN 15 2017

NOTE: "FAIR" INDICATES FEW OR NO CLOUDS BELOW 12000 FEET WITH NO
SIGNIFICANT WEATHER AND/OR OBSTRUCTIONS TO VISIBILITY.

COZ001>005-013-030-031-151800-
...NORTHWEST COLORADO...

CITY           SKY/WX    TMP DP  RH WIND       PRES   REMARKS
CRAIG          CLOUDY    23  20  88 NE6       30.10R FOG     WCI  16
HAYDEN         CLOUDY    25  19  80 CALM      30.07S
MEEKER         CLOUDY    27  24  89 W7        30.06S WCI  19
MOUNT WERNER   NOT AVBL
STEAMBOAT SPGS CLOUDY    21  19  93 NW3       30.05S
WALDEN           N/A    N/A N/A N/A CALM      30.09F VSB 1/2
$$

COZ006>008-011-151800-
...WEST CENTRAL VALLEYS...

CITY           SKY/WX    TMP DP  RH WIND       PRES   REMARKS
GRAND JUNCTION FAIR      40  34  79 W5        30.00S
MONTROSE       CLOUDY    33  33 100 CALM      30.02F
EAGLE          CLOUDY    30  25  80 E6        30.07F WCI  24
RIFLE          FAIR      33  30  88 CALM      30.03S
DELTA          CLOUDY    38  36  93 CALM      30.02S
NUCLA          CLOUDY    36  34  93 CALM      30.02R
$$

COZ017>023-064>068-151800-
...SOUTHWEST COLORADO...

CITY           SKY/WX    TMP DP  RH WIND       PRES   REMARKS
DURANGO        CLOUDY    38  35  89 SW7       29.94R
CORTEZ         CLOUDY    41  39  93 CALM      29.96R
PAGOSA SPRINGS CLOUDY    34  34 100 CALM      29.95S
TELLURIDE      PTSUNNY   31  28  87 CALM      29.99S
WOLF CREEK PAS CLOUDY    23  23 100 N6        30.08R WCI  16
$$

COZ009-010-012-014-032>034-037-058>063-151800-
...CENTRAL COLORADO...

CITY           SKY/WX    TMP DP  RH WIND       PRES   REMARKS
ASPEN          MIX PCPN  24  24 100 CALM      30.01R
BUENA VISTA    CLOUDY    31  25  78 CALM      30.03F
COPPER MTN     NOT AVBL
BERTHOUD PASS  NOT AVBL
COTTONWOOD PAS CLOUDY    32  27  80 CALM      30.04S
GUNNISON       CLOUDY    16  14  92 E7        30.04F FOG     WCI   6
KREMMLING      CLOUDY   N/A N/A N/A CALM      30.09F
LEADVILLE      CLOUDY    23  20  88 CALM      30.04S
MONARCH PASS   CLOUDY    23  21  93 NE17      30.14F WCI   9
SALIDA         CLOUDY    35  31  86 CALM      30.11F
SUNLIGHT       FOG       23  23 100 NE7       30.06S VSB 1/2 WCI  15
WILKERSON PASS CLOUDY    27  25  93 E8        30.09S WCI  18
$$

COZ069>075-151800-
...SAN LUIS VALLEY/SANGRE DE CRISTO MOUNTAINS...

CITY           SKY/WX    TMP DP  RH WIND       PRES   REMARKS
ALAMOSA        CLOUDY    29  29 100 SW3       29.99S
LA VETA PASS   NOT AVBL
SAGUACHE       CLOUDY    34  28  80 NW12      29.98S WCI  25
$$

COZ035-036-038>040-151800-
...NORTHERN COLORADO FRONT RANGE...

CITY           SKY/WX    TMP DP  RH WIND       PRES   REMARKS
DENVER INTL AP CLOUDY    31  27  85 W6        30.09F FOG     WCI  25
DMNS CITY PARK   N/A     32  25  75 E7        30.08F WCI  26
AURORA         CLOUDY    31  29  94 W3        30.09F FOG
FRONT RANGE AP CLOUDY    32  30  93 W5        30.10S FOG     WCI  27
ERIE MUNI ARPT CLOUDY    31  29  92 CALM      30.10F FOG
BOULDER MUN AP FAIR      34  28  80 CALM      30.09S
CENTENNIAL     CLOUDY    32  26  78 NW3       30.08F
BROOMFIELD     CLOUDY    36  28  75 CALM      30.09F
FORT COLLINS   CLOUDY    28  27  93 CALM      30.11F
LONGMONT       CLOUDY    33  29  85 CALM      30.11F
$$

COZ041-046-047-076>085-087-088-151800-
...PIKES PEAK/PALMER DIVIDE AND SOUTHERN FOOTHILLS...

CITY           SKY/WX    TMP DP  RH WIND       PRES   REMARKS
COLO. SPRINGS  LGT SNOW  31  28  89 W3        30.07S FOG
A. F. ACADEMY  LGT SNOW  32  27  80 N9        30.05S WCI  24
SCHRIEVER AFB  NOT AVBL
ELLICOTT         N/A    N/A N/A N/A N8        30.04F
FALCON         CLOUDY    32  26  79 N9        30.06F HAZE    WCI  24
FORT CARSON    PTSUNNY   30  27  86 S5        30.09S FOG     WCI  25
LIMON          LGT SNOW  29  28  96 N8        30.07F FOG     WCI  21
MONUMENT HILL  LGT SNOW  28  27  93 NW8       30.08F WCI  20
TRINIDAD       SNOW      32  29  88 E3        30.06S VSB 1/2
$$

COZ042>045-048>051-090-091-151800-
...NORTHEAST COLORADO...

CITY           SKY/WX    TMP DP  RH WIND       PRES   REMARKS
GREELEY ARPT   CLOUDY    29  26  89 NW6       30.12F WCI  23
AKRON          CLOUDY    31  21  66 CALM      30.10F
BURLINGTON     FRZ RAIN  32  29  88 E5        30.11F FOG     WCI  27
WRAY           MIX PCPN  30  28  93 CALM      30.14
STERLING       CLOUDY    28  27  93 CALM      30.12F
HOLYOKE        PTSUNNY   32  27  80 CALM      30.14S
FORT MORGAN    CLOUDY    30  25  81 CALM      30.11F
$$

COZ086-089-092>099-151800-
...SOUTHEAST COLORADO...

CITY           SKY/WX    TMP DP  RH WIND       PRES   REMARKS
PUEBLO         CLOUDY    31  27  85 W5        30.10R FOG     WCI  26
LA JUNTA       CLOUDY    32  29  88 N6        30.10S FOG     WCI  26
LAMAR          FRZ RAIN  31  29  92 NE7       30.09F FOG     WCI  24
SPRINGFIELD      N/A     30  30 100 E8        30.08S WCI  22
$$




USA.gov is the U.S. government's official web portal to all federal, state and local government web resources and services.